Weather History for Prestonsburg, KY

Change the Weather History Date:

Tuesday, April 9, 2013

  Actual Average (KJKL) Record (KJKL)
Temperature  
Mean Temperature 73 °F 56 °F  
Max Temperature 83 °F 66 °F 86 °F (2001)
Min Temperature 63 °F 45 °F 24 °F (1985)
Degree Days  
Heating Degree Days 0 11  
Month to date heating degree days 106  
Since 1 July heating degree days 3959  
Cooling Degree Days 8 1  
Month to date cooling degree days 9  
Year to date cooling degree days 16  
Growing Degree Days 23 (Base 50)    
Moisture  
Dew Point 50 °F    
Average Humidity 47    
Maximum Humidity 62    
Minimum Humidity 32    
Precipitation  
Precipitation 0.00 in 0.13 in 1.26 in (1984)
Month to date precipitation 1.12  
Year to date precipitation 12.60  
Snow  
Snow 0.00 in 0.00 in - ()
Month to date snowfall 0.5  
Since 1 July snowfall 23.0  
Snow Depth -    
Sea Level Pressure  
Sea Level Pressure 30.07 in    
Wind  
Wind Speed 5 mph (SW)    
Max Wind Speed 15 mph    
Max Gust Speed 21 mph    
Visibility 10 miles    
Events      
T = Trace of Precipitation, MM = Missing Value Source: NWS Daily Summary

Daily Weather History Graph

Daily Weather History Graph

Search for Another Location

Airport:

Trip Planner

Search our weather history database for the weather conditions in past years. The results will help you decide how hot, cold, wet, or windy it might be!

Date:

Astronomy

Apr. 09, 2013 Rise Set
Actual Time 7:03 AM EDT 8:00 PM EDT
Civil Twilight 6:36 AM EDT 8:27 PM EDT
Nautical Twilight 6:05 AM EDT 8:59 PM EDT
Astronomical Twilight 5:32 AM EDT 9:32 PM EDT
Moon 6:25 AM EDT (4/9) 7:35 PM EDT (4/9)
Length of Visible Light 13h 50m
Length of Day
12h 57m
Waning Crescent, 1% of the Moon is Illuminated
Apr 9
Waning Crescent
Apr 10
New
Apr 18
First Quarter
Apr 25
Full
May 2
Last Quarter

Hourly Weather History & Observations

Time (EDT) Temp. Dew Point Humidity Pressure Visibility Wind Dir Wind Speed Gust Speed Precip Events Conditions
12:15 AM 68.2 °F 49.3 °F 51% 30.06 in 10.0 mi SW 6.9 mph - N/A   Clear
12:35 AM 68.2 °F 49.3 °F 51% 30.07 in 10.0 mi SW 5.8 mph - N/A   Clear
12:55 AM 68.2 °F 49.3 °F 51% 30.07 in 10.0 mi SW 5.8 mph - N/A   Clear
1:15 AM 67.6 °F 49.5 °F 52% 30.07 in 10.0 mi SW 4.6 mph - N/A   Clear
1:35 AM 67.3 °F 49.5 °F 53% 30.08 in 10.0 mi SW 4.6 mph - N/A   Scattered Clouds
1:55 AM 67.3 °F 49.5 °F 53% 30.08 in 10.0 mi SW 4.6 mph - N/A   Mostly Cloudy
2:15 AM 67.1 °F 49.6 °F 53% 30.08 in 10.0 mi SW 3.5 mph - N/A   Mostly Cloudy
2:35 AM 66.9 °F 49.6 °F 54% 30.07 in 10.0 mi SSW 3.5 mph - N/A   Overcast
2:55 AM 65.3 °F 50.0 °F 58% 30.07 in 10.0 mi SSW 4.6 mph - N/A   Overcast
3:15 AM 65.7 °F 49.6 °F 56% 30.07 in 7.0 mi SSW 4.6 mph - N/A   Overcast
3:35 AM 65.7 °F 49.6 °F 56% 30.07 in 10.0 mi Calm Calm - N/A   Overcast
3:55 AM 65.7 °F 49.5 °F 56% 30.07 in 10.0 mi Calm Calm - N/A   Overcast
4:15 AM 65.7 °F 49.3 °F 55% 30.08 in 10.0 mi Calm Calm - N/A   Overcast
4:35 AM 64.9 °F 50.0 °F 58% 30.08 in 10.0 mi Calm Calm - N/A   Overcast
4:55 AM 64.6 °F 49.6 °F 58% 30.08 in 7.0 mi Calm Calm - N/A   Overcast
5:15 AM 64.4 °F 49.3 °F 58% 30.08 in 10.0 mi Calm Calm - N/A   Mostly Cloudy
5:35 AM 63.9 °F 49.3 °F 59% 30.09 in 10.0 mi South 3.5 mph - N/A   Mostly Cloudy
5:55 AM 63.1 °F 49.3 °F 61% 30.09 in 10.0 mi SSE 3.5 mph - N/A   Scattered Clouds
6:15 AM 63.7 °F 49.5 °F 60% 30.10 in 10.0 mi Calm Calm - N/A   Mostly Cloudy
6:35 AM 63.3 °F 49.5 °F 61% 30.11 in 10.0 mi Calm Calm - N/A   Mostly Cloudy
6:55 AM 63.0 °F 49.3 °F 61% 30.11 in 10.0 mi SSE 3.5 mph - N/A   Mostly Cloudy
7:15 AM 63.1 °F 49.8 °F 62% 30.12 in 10.0 mi South 3.5 mph - N/A   Mostly Cloudy
7:35 AM 63.7 °F 50.0 °F 61% 30.12 in 7.0 mi Calm Calm - N/A   Overcast
7:55 AM 63.9 °F 50.0 °F 61% 30.13 in 10.0 mi SSW 3.5 mph - N/A   Overcast
8:15 AM 64.4 °F 49.6 °F 59% 30.14 in 10.0 mi SSW 6.9 mph - N/A   Overcast
8:35 AM 64.4 °F 50.0 °F 59% 30.14 in 10.0 mi SSW 8.1 mph - N/A   Overcast
8:55 AM 65.3 °F 50.2 °F 58% 30.14 in 10.0 mi SSW 4.6 mph - N/A   Overcast
9:15 AM 65.5 °F 50.5 °F 58% 30.14 in 10.0 mi Calm Calm - N/A   Overcast
9:35 AM 64.9 °F 50.7 °F 60% 30.14 in 10.0 mi Calm Calm - N/A   Overcast
9:55 AM 66.4 °F 50.9 °F 57% 30.14 in 10.0 mi Calm Calm - N/A   Overcast
10:15 AM 68.0 °F 51.4 °F 55% 30.14 in 10.0 mi Calm Calm - N/A   Overcast
10:35 AM 71.4 °F 52.2 °F 51% 30.14 in 10.0 mi SW 8.1 mph - N/A   Mostly Cloudy
10:55 AM 72.3 °F 52.3 °F 49% 30.14 in 10.0 mi SW 10.4 mph - N/A   Scattered Clouds
11:15 AM 74.3 °F 52.9 °F 47% 30.14 in 10.0 mi SW 9.2 mph - N/A   Scattered Clouds
11:35 AM 75.2 °F 53.4 °F 47% 30.14 in 10.0 mi SW 6.9 mph 17.3 mph N/A   Clear
11:55 AM 76.8 °F 53.8 °F 45% 30.14 in 10.0 mi SW 6.9 mph - N/A   Clear
12:15 PM 78.1 °F 53.8 °F 43% 30.12 in 10.0 mi SW 9.2 mph 16.1 mph N/A   Clear
12:35 PM 76.3 °F 53.2 °F 45% 30.12 in 10.0 mi WSW 11.5 mph 18.4 mph N/A   Clear
12:55 PM 79.2 °F 53.2 °F 41% 30.11 in 10.0 mi SSW 11.5 mph 16.1 mph N/A   Scattered Clouds
1:15 PM 79.7 °F 52.9 °F 39% 30.11 in 10.0 mi SW 8.1 mph 17.3 mph N/A   Scattered Clouds
1:35 PM 80.6 °F 52.7 °F 38% 30.10 in 10.0 mi SSW 9.2 mph 17.3 mph N/A   Clear
1:55 PM 80.1 °F 52.5 °F 38% 30.09 in 10.0 mi SW 11.5 mph 20.7 mph N/A   Scattered Clouds
2:15 PM 79.5 °F 52.2 °F 38% 30.09 in 10.0 mi SW 8.1 mph 18.4 mph N/A   Scattered Clouds
2:35 PM 80.1 °F 52.3 °F 38% 30.08 in 10.0 mi SW 5.8 mph - N/A   Scattered Clouds
2:55 PM 79.0 °F 50.9 °F 37% 30.06 in 10.0 mi SW 9.2 mph - N/A   Clear
3:15 PM 78.8 °F 51.1 °F 38% 30.04 in 10.0 mi SW 9.2 mph 17.3 mph N/A   Scattered Clouds
3:35 PM 80.6 °F 51.3 °F 36% 30.05 in 10.0 mi SW 15.0 mph 18.4 mph N/A   Clear
3:55 PM 80.4 °F 51.4 °F 36% 30.04 in 10.0 mi SW 13.8 mph 17.3 mph N/A   Clear
4:15 PM 83.3 °F 52.5 °F 34% 30.03 in 10.0 mi SSW 9.2 mph - N/A   Clear
4:35 PM 82.4 °F 49.5 °F 32% 30.02 in 10.0 mi SW 6.9 mph 18.4 mph N/A   Clear
4:55 PM 82.8 °F 51.1 °F 33% 30.02 in 10.0 mi WSW 6.9 mph 18.4 mph N/A   Clear
5:15 PM 81.9 °F 51.3 °F 34% 30.02 in 10.0 mi SW 13.8 mph 20.7 mph N/A   Clear
5:35 PM 81.9 °F 50.4 °F 33% 30.02 in 10.0 mi SW 10.4 mph 19.6 mph N/A   Clear
5:55 PM 81.7 °F 51.4 °F 35% 30.01 in 10.0 mi WSW 9.2 mph 16.1 mph N/A   Clear
6:15 PM 80.1 °F 50.4 °F 35% 30.02 in 10.0 mi WSW 15.0 mph 18.4 mph N/A   Clear
6:35 PM 80.1 °F 50.0 °F 35% 30.02 in 10.0 mi SW 6.9 mph - N/A   Clear
6:55 PM 79.3 °F 50.7 °F 37% 30.02 in 10.0 mi WSW 6.9 mph - N/A   Clear
7:15 PM 78.8 °F 50.5 °F 37% 30.02 in 10.0 mi WSW 5.8 mph - N/A   Clear
7:35 PM 78.1 °F 50.4 °F 38% 30.02 in 10.0 mi SW 6.9 mph - N/A   Clear
7:55 PM 78.1 °F 49.5 °F 37% 30.02 in 10.0 mi SW 9.2 mph - N/A   Clear
8:15 PM 77.2 °F 49.3 °F 37% 30.02 in 10.0 mi SSW 6.9 mph - N/A   Clear
8:35 PM 76.3 °F 48.9 °F 38% 30.03 in 10.0 mi SW 5.8 mph - N/A   Clear
8:55 PM 75.6 °F 49.1 °F 39% 30.01 in 10.0 mi South 3.5 mph - N/A   Clear
9:15 PM 74.8 °F 48.9 °F 40% 30.02 in 10.0 mi Calm Calm - N/A   Clear
9:35 PM 73.8 °F 48.7 °F 41% 30.02 in 10.0 mi Calm Calm - N/A   Clear
9:55 PM 72.5 °F 48.4 °F 42% 30.03 in 10.0 mi Calm Calm - N/A   Clear
10:15 PM 72.7 °F 48.4 °F 42% 30.03 in 10.0 mi Calm Calm - N/A   Clear
10:55 PM 72.1 °F 48.4 °F 43% 30.03 in 10.0 mi SSW 3.5 mph - N/A   Clear
11:15 PM 71.2 °F 48.2 °F 44% 30.03 in 10.0 mi SW 3.5 mph - N/A   Clear
11:35 PM 72.3 °F 48.9 °F 43% 30.03 in 10.0 mi SW 6.9 mph - N/A   Clear
11:55 PM 72.5 °F 49.1 °F 44% 30.03 in 10.0 mi SW 5.8 mph - N/A   Clear